Location: Rotheul
(50.2849°N, 11.2349°E)
Time: 04:00:53
(UTC+01:00)

Envisat - Pass Details

Date: 29 October 2019
Orbit: 764 x 766 km, 98.1° (Epoch: 21 November)

Event Time Altitude Azimuth Distance (km) Brightness Sun altitude
Rises 17:56:15 0° 159° (SSE) 3,221 6.1 -10.0°
Reaches altitude 10° 17:58:32 10° 158° (SSE) 2,299 5.3 -10.3°
Maximum altitude 18:03:36 78° 73° (ENE) 789 2.9 -11.1°
Drops below altitude 10° 18:08:42 10° 348° (NNW) 2,315 5.6 -11.9°
Sets 18:11:01 0° 347° (NNW) 3,246 6.3 -12.3°
